Minot AFB, ND

6:44 AM CST on November 19, 2019 (GMT -0600)
Minot Air Force Base

Weather History for KMIB - September, 2019

Change the Weather History Date:

Wednesday, September 4, 2019

  Actual Average Record
Temperature  
Mean Temperature 62 °F -  
Max Temperature 79 °F 74 °F 100 °F (1998)
Min Temperature 46 °F 49 °F 39 °F (2011)
Degree Days  
Heating Degree Days 3    
Growing Degree Days 12 (Base 50)    
Moisture  
Dew Point 53 °F    
Average Humidity 72    
Maximum Humidity 94    
Minimum Humidity 43    
Precipitation  
Precipitation 0.00 in - - ()
Sea Level Pressure  
Sea Level Pressure 29.97 in    
Wind  
Wind Speed 7 mph (SSE)    
Max Wind Speed 20 mph    
Max Gust Speed -    
Visibility 10 miles    
Events      
Averages and records for this station are not official NWS values.
T = Trace of Precipitation, MM = Missing Value Source: NWS Daily Summary

Daily Weather History Graph

Daily Weather History Graph

Search for Another Location

Airport or City:

Astronomy

Sep. 04, 2019 Rise Set
Actual Time 7:06 AM CDT 8:21 PM CDT
Civil Twilight 6:34 AM CDT 8:53 PM CDT
Nautical Twilight 5:55 AM CDT 9:32 PM CDT
Astronomical Twilight 5:13 AM CDT 10:13 PM CDT
Moon 1:38 PM CDT (9/4) 11:26 PM CDT (9/4)
Length of Visible Light 14h 18m
Length of Day
13h 14m
Waxing Crescent, 35% of the Moon is Illuminated
Sep 4
Waxing Crescent
Sep 5
First Quarter
Sep 13
Full
Sep 21
Last Quarter
Sep 28
New

Hourly Weather History & Observations

Time (CDT) Temp. Windchill Dew Point Humidity Pressure Visibility Wind Dir Wind Speed Gust Speed Precip Events Conditions
12:56 AM 49.8 °F - 46.9 °F 90% 30.12 in 10.0 mi South 4.6 mph - N/A   Clear
1:56 AM 47.5 °F - 45.3 °F 92% 30.11 in 10.0 mi SSW 5.8 mph - N/A   Clear
2:56 AM 48.6 °F - 45.7 °F 90% 30.12 in 10.0 mi Calm Calm - N/A   Clear
3:56 AM 46.2 °F 43.3 °F 44.6 °F 94% 30.10 in 10.0 mi SSW 5.8 mph - N/A   Clear
5:56 AM 47.3 °F - 45.7 °F 94% 30.10 in 10.0 mi Calm Calm - N/A   Unknown
6:56 AM 49.3 °F - 46.8 °F 91% 30.07 in 10.0 mi South 6.9 mph - N/A   Clear
7:56 AM 50.7 °F - 48.6 °F 92% 30.08 in 10.0 mi SSW 4.6 mph - N/A   Clear
8:56 AM 56.8 °F - 52.0 °F 84% 30.07 in 10.0 mi South 8.1 mph - N/A   Clear
9:56 AM 62.1 °F - 53.6 °F 74% 30.05 in 10.0 mi South 10.4 mph - N/A   Clear
10:56 AM 68.0 °F - 54.5 °F 62% 30.02 in 10.0 mi South 13.8 mph - N/A   Clear
11:56 AM 70.7 °F - 54.7 °F 57% 30.02 in 10.0 mi South 11.5 mph - N/A   Clear
12:56 PM 72.3 °F - 56.1 °F 57% 30.02 in 10.0 mi South 8.1 mph - N/A   Partly Cloudy
1:56 PM 73.8 °F - 55.6 °F 53% 29.98 in 10.0 mi SE 9.2 mph - N/A   Partly Cloudy
2:56 PM 77.7 °F - 55.8 °F 47% 29.94 in 10.0 mi SE 15.0 mph - N/A   Clear
3:56 PM 78.1 °F - 54.3 °F 44% 29.88 in 10.0 mi SE 12.7 mph - N/A   Partly Cloudy
4:56 PM 78.6 °F - 54.1 °F 43% 29.84 in 10.0 mi SSE 19.6 mph - N/A   Clear
5:56 PM 77.7 °F - 56.5 °F 48% 29.86 in 10.0 mi SSE 16.1 mph - N/A   Partly Cloudy
6:56 PM 76.6 °F - 57.7 °F 52% 29.83 in 10.0 mi SSE 15.0 mph - N/A   Partly Cloudy
7:56 PM 71.4 °F - 59.9 °F 67% 29.82 in 10.0 mi ESE 9.2 mph - N/A   Clear
8:56 PM 67.6 °F - 58.6 °F 73% 29.81 in 10.0 mi ESE 12.7 mph - N/A   Clear
9:56 PM 64.4 °F - 58.1 °F 80% 29.79 in 10.0 mi SE 6.9 mph - N/A   Clear
10:56 PM 63.0 °F - 58.3 °F 85% 29.79 in 10.0 mi SSE 4.6 mph - N/A   Clear
11:56 PM 60.1 °F - 57.4 °F 91% 29.78 in 10.0 mi Calm Calm - N/A   Clear